Temperature
17 17 18 18 18 18 18 18 18 18 18 18 18 18 18 18 18 18 18 18 18 18 18 18 18 18 18 18 18 18 18 18 18 18 18 18 18 18 18 18 18 18 18
18 18 18 18 18 18 18 18 18 18 18 18 18 18 18 18 18 18 18 18 18 18 18 18 18 18 18 18 17 17 17 18 18 18 18 17 17 17 17 18 18 18 18
18 18 18 18 18 18 18 18 17 17 17 17 18 18 18 18 18 18 18 18 18 18 18 18 18 18 17 17 17 17 17 17 17 17 17 17 17 17 17 17 17 17 17
18 18 18 18 18 18 17 17 17 17 17 17 17 18 18 18 18 18 18 18 18 18 18 18 18 17 17 17 17 17 17 17 17 17 17 17 17 17 17 17 17 17 17
18 18 18 18 18 17 17 17 17 17 17 17 17 17 17 17 17 17 17 17 17 17 17 17 17 17 17 17 17 17 17 17 17 17 17 17 17 17 17 17 17 17 17
18 17 18 17 17 17 17 17 17 17 17 17 17 17 17 17 17 17 17 17 17 17 17 17 17 17 17 17 17 17 17 17 17 17 17 17 17 17 17 17 17 17 16
18 17 17 17 17 17 17 17 17 17 17 17 17 17 17 17 17 17 17 17 17 17 17 17 17 17 17 17 17 17 17 17 17 17 17 17 17 16 16 16 16 16 16
18 17 17 17 17 17 17 17 17 17 17 17 17 17 17 17 17 17 17 17 17 17 17 17 17 17 17 17 17 17 17 17 17 17 16 16 16 16 16 16 16 16 16
18 17 17 17 17 17 17 17 17 17 17 17 17 17 17 17 17 17 17 17 17 16 17 17 16 16 16 16 16 16 16 16 16 16 16 16 16 16 16 16 16 16 16
17 17 17 17 17 17 17 16 16 16 16 16 16 16 16 16 16 17 16 16 16 16 16 16 16 16 16 16 16 16 16 16 16 16 16 16 16 16 16 16 16 16 16
17 17 17 17 17 17 16 16 16 16 16 16 16 16 16 16 16 16 16 16 16 16 16 16 16 16 16 16 16 16 16 16 16 16 16 16 16 16 16 16 16 16 16
17 17 17 17 17 17 16 16 16 16 16 16 16 16 16 16 16 16 16 16 16 16 16 16 16 16 16 16 16 16 16 16 16 16 16 16 16 16 15 16 16 16 16
17 17 17 17 17 17 17 16 16 16 16 16 16 16 16 16 16 16 16 16 16 16 16 16 16 16 16 16 16 16 16 16 16 16 16 16 16 15 15 15 15 15 15
17 17 17 17 17 17 17 16 16 16 16 16 16 16 16 16 16 16 16 16 16 16 16 16 16 16 16 16 16 16 15 15 15 15 15 15 15 15 15 15 15 15 15
17 17 17 17 17 17 16 16 16 16 16 16 16 16 16 16 16 15 15 15 15 15 15 15 15 15 15 15 15 15 15 15 15 15 15 15 15 15 15 15 15 15 15
18 17 17 17 17 17 16 16 16 16 16 16 16 16 16 15 15 15 15 15 15 15 15 15 15 15 15 15 15 15 15 15 15 15 15 15 15 15 15 15 15 15 15
18 18 17 17 17 17 16 16 16 16 16 16 16 16 15 15 15 15 15 15 15 15 15 15 15 15 15 15 15 15 15 15 15 15 15 15 15 15 15 15 14 14 14
18 18 17 17 17 17 16 16 16 16 16 16 16 15 15 15 15 15 15 15 15 15 15 15 15 15 15 15 15 15 14 14 14 14 14 14 14 14 14 14 14 14 14
18 17 17 17 17 17 16 16 16 16 16 16 15 15 15 15 15 15 15 15 15 15 15 15 14 14 14 14 14 14 14 14 14 14 14 14 14 14 14 14 14 14 14
18 17 17 17 17 17 16 16 16 16 15 15 15 15 15 15 15 15 15 14 14 14 14 14 14 14 14 14 14 14 14 14 14 14 14 14 14 14 14 14 14 14 14
18 17 17 17 17 17 16 16 16 16 15 15 15 15 15 14 14 14 14 14 14 14 14 14 14 14 14 14 14 14 14 14 14 13 13 13 13 13 13 13 13 13 13
18 17 17 17 17 17 16 16 16 16 15 15 15 15 14 14 14 14 14 14 14 14 14 14 14 14 13 13 13 13 13 13 13 13 13 13 13 13 13 13 13 13 13
18 17 17 17 17 17 16 16 16 16 15 15 15 15 14 14 14 14 14 14 14 14 13 13 13 13 13 13 13 13 13 13 13 13 13 13 13 13 13 13 13 13 13
18 17 17 17 17 16 16 16 16 16 15 15 15 15 14 14 14 14 14 13 13 13 13 13 13 13 13 13 13 13 13 13 13 12 12 13 13 13 13 13 13 13 13
18 17 17 17 17 16 16 16 16 16 15 15 15 14 14 14 14 14 14 13 13 13 13 13 13 13 13 13 13 13 13 13 13 13 12 12 12 12 12 12 12 12 12
17 17 17 17 17 16 16 16 16 15 15 15 15 14 14 14 14 14 14 13 13 13 13 13 13 13 13 13 13 13 13 13 13 13 12 12 12 12 12 12 12 12 12
Wind_Speed
1 2 6 7 8 9 10 10 11 11 12 12 13 14 14 13 13 13 13 12 12 12 12 12 12 11 11 11 11 10 10 10 10 10 9 9 9 8 7 7 7 7 7
5 4 8 8 9 10 11 11 11 12 12 13 14 14 14 14 14 13 13 12 12 12 11 11 11 11 10 10 10 10 10 9 10 9 9 8 9 8 8 8 8 6 7
6 7 9 9 10 11 11 12 12 13 13 13 13 13 14 14 14 14 13 12 12 12 11 11 11 10 10 10 10 10 10 10 10 10 9 8 8 9 9 8 8 7 7
8 8 9 10 11 11 11 12 12 12 13 13 13 13 13 13 13 13 13 12 12 11 10 10 10 10 10 10 10 10 10 11 11 10 8 7 7 9 9 8 8 7 8
8 8 9 11 11 11 11 12 12 12 12 12 12 13 12 12 12 13 13 12 11 11 10 10 10 10 9 9 9 10 10 11 11 10 9 8 7 9 9 8 8 7 7
7 8 10 11 11 11 11 12 12 12 12 12 12 12 12 12 12 12 13 12 11 11 10 10 9 9 9 10 10 11 11 12 11 10 9 8 7 9 9 9 8 8 7
7 8 10 11 11 11 11 11 12 12 12 12 12 11 12 11 12 12 12 12 11 11 10 10 9 9 10 10 10 11 12 11 10 9 8 7 8 9 10 9 9 8 7
8 7 9 11 12 11 11 11 12 11 12 12 11 11 11 11 11 11 11 11 11 11 10 9 9 9 9 10 10 11 11 10 9 9 8 7 9 9 9 9 9 8 7
8 7 6 8 9 10 10 10 10 10 11 11 11 10 11 10 10 10 9 10 10 10 9 9 9 8 9 9 10 10 10 10 8 6 7 7 9 9 9 9 9 8 8
6 6 6 6 7 6 7 9 10 10 10 10 10 10 10 9 8 8 8 8 8 8 7 7 7 8 8 9 9 9 9 9 8 6 6 7 9 8 9 9 8 8 8
6 4 5 5 5 5 6 7 8 8 8 8 8 9 8 6 5 5 5 6 6 6 6 6 6 7 7 8 8 9 8 7 7 6 5 7 8 8 8 8 8 8 8
6 5 4 5 5 5 5 6 5 5 6 6 5 6 5 4 4 4 3 4 4 5 5 6 6 6 6 5 7 7 6 6 5 5 5 7 7 7 7 8 9 8 8
6 6 4 5 5 4 4 5 4 4 4 4 4 4 3 3 3 3 3 3 4 4 5 5 5 5 5 5 5 5 5 5 4 3 4 5 6 7 7 8 8 8 7
6 6 5 5 5 4 4 4 3 3 3 2 3 3 4 2 2 2 2 2 3 3 4 4 4 5 5 5 5 5 5 4 3 3 4 4 5 6 7 8 8 8 8
6 5 6 6 5 4 4 3 3 2 2 2 3 4 5 3 2 2 2 2 2 3 3 3 3 4 4 4 4 5 5 5 4 4 4 4 4 5 7 8 8 8 8
6 6 6 6 6 5 4 3 2 3 3 3 4 4 5 4 3 2 2 2 3 3 4 3 4 4 4 4 4 4 4 4 4 4 4 5 6 6 7 8 7 7 8
6 6 6 7 6 5 4 4 3 3 4 3 3 4 5 5 4 3 2 2 2 3 5 5 5 5 4 4 4 4 3 3 3 4 4 4 5 6 6 7 7 8 8
6 6 6 6 6 5 4 4 3 4 4 3 3 4 4 5 6 4 3 2 3 4 4 3 3 4 4 4 3 2 2 2 3 3 4 4 4 4 5 6 6 7 7
7 6 6 5 6 5 5 4 4 4 3 3 4 4 4 5 6 5 3 2 3 3 3 3 3 3 3 3 2 2 2 2 2 3 3 3 3 4 3 4 5 6 7
6 6 6 5 6 5 4 3 3 3 2 3 3 3 4 4 5 5 3 3 4 3 3 3 3 3 2 2 3 3 3 2 2 2 2 2 2 3 3 3 3 4 6
5 5 5 5 4 5 3 3 3 2 1 1 2 3 4 4 4 5 3 3 3 3 2 2 2 3 2 2 3 3 4 4 3 2 2 1 1 1 2 2 3 3 3
7 6 6 6 5 5 4 3 3 3 2 2 1 2 3 4 4 4 4 2 2 2 2 2 2 2 1 2 2 2 3 4 4 3 2 2 2 1 1 1 3 3 3
7 7 7 7 6 6 5 4 3 3 2 2 1 0 1 3 3 3 3 3 2 2 2 1 2 2 1 1 1 3 2 2 2 3 2 2 2 2 1 1 2 3 2
8 7 7 8 7 6 6 6 6 4 3 3 2 1 1 2 2 3 3 3 2 2 2 1 2 2 2 0 1 0 2 3 2 1 3 3 3 1 1 1 1 1 2
7 7 7 7 6 5 6 7 6 4 3 2 2 2 1 0 1 2 3 2 2 2 2 1 1 1 2 2 1 1 1 1 2 2 1 3 3 2 2 1 1 1 1
5 5 6 6 6 6 6 6 7 6 5 4 3 2 1 1 1 1 2 2 2 1 2 2 2 2 2 2 1 2 2 2 2 2 2 2 2 3 2 1 1 1 2
Wind_Direction
149 124 100 94 96 95 93 90 89 87 86 86 89 88 84 82 81 82 83 83 85 88 90 88 88 87 86 89 90 89 86 87 86 84 83 83 83 86 88 93 90 85 84
152 126 105 99 98 97 95 94 91 89 89 90 90 87 85 84 82 81 84 84 85 88 91 90 88 88 87 88 88 88 85 84 85 82 78 78 80 83 86 93 95 94 91
128 115 107 104 101 98 98 98 94 92 92 92 91 89 86 85 82 81 83 85 87 87 89 91 88 89 89 86 84 84 84 84 83 79 74 74 81 81 85 91 94 94 88
123 117 113 110 104 100 99 100 98 96 95 93 91 90 88 86 84 82 82 85 87 89 89 89 90 90 87 84 81 83 86 88 84 78 68 69 76 82 82 84 87 87 84
119 118 119 114 109 105 102 102 101 99 97 94 92 91 91 90 87 84 82 86 87 89 89 90 89 91 86 81 79 81 85 86 84 76 71 68 75 80 79 79 80 83 83
123 125 122 118 113 110 106 104 103 102 99 97 95 94 93 92 91 87 83 83 87 88 87 87 88 88 82 78 75 79 85 86 83 75 70 68 75 81 79 76 75 79 79
129 130 128 122 117 113 110 107 104 103 101 99 97 96 94 93 95 92 87 82 83 88 86 85 85 86 81 76 75 81 84 88 87 78 71 71 79 80 78 76 72 72 70
138 137 133 130 123 117 115 112 108 105 103 99 97 98 98 94 94 95 91 86 83 82 82 81 83 83 79 74 77 81 86 87 91 84 75 76 82 79 76 73 69 67 65
132 130 127 129 127 124 121 116 112 109 106 101 98 99 100 96 93 91 90 89 86 83 79 76 78 80 77 74 75 79 88 88 86 87 85 82 85 82 77 73 70 69 65
127 130 132 127 124 123 125 120 115 111 109 106 102 100 99 98 96 92 89 88 84 83 81 77 75 71 71 71 75 77 85 84 83 83 86 90 87 83 80 75 72 71 67
129 135 134 127 124 125 127 121 117 113 111 109 106 105 98 92 92 90 88 88 82 77 71 71 75 69 63 61 67 75 85 83 86 86 89 95 91 84 79 76 74 72 65
145 155 148 136 133 129 123 109 101 103 101 100 100 100 100 98 93 93 84 79 72 57 51 57 64 66 60 56 62 67 77 80 86 91 95 95 93 86 78 75 72 71 66
150 152 151 144 143 135 116 111 98 96 94 89 94 101 105 96 84 76 63 54 48 46 42 42 49 57 59 62 68 69 75 79 79 88 100 99 94 88 81 76 71 66 61
140 151 156 143 136 132 122 117 108 101 95 90 90 98 105 94 70 67 72 58 53 54 51 48 50 55 63 70 80 81 78 77 65 67 87 98 93 88 84 80 72 65 60
149 149 147 143 141 131 117 120 115 110 118 120 96 95 108 107 98 86 82 68 63 61 61 59 56 68 72 71 81 84 81 75 67 63 63 80 84 83 82 80 72 64 62
153 147 143 144 143 135 136 131 121 114 106 95 90 96 107 109 102 102 84 65 54 65 75 80 74 77 70 73 68 69 76 78 72 69 61 65 68 70 77 73 67 62 62
156 148 145 146 141 141 135 128 119 113 110 100 98 102 103 107 103 102 86 68 57 72 77 73 68 67 65 63 56 55 65 67 69 73 77 75 64 60 70 71 67 60 61
151 146 150 146 140 137 128 119 112 110 108 102 100 100 96 103 109 109 96 79 75 78 76 74 61 60 53 53 50 43 57 69 62 70 82 83 78 68 66 72 71 66 62
158 154 149 143 140 140 131 114 110 106 99 98 97 96 97 106 110 108 105 100 91 80 66 71 64 72 63 44 40 39 37 50 51 70 65 78 86 86 80 67 64 63 59
159 154 149 147 143 139 126 104 88 87 84 80 90 97 100 102 105 102 101 96 95 85 63 63 72 57 64 40 40 29 14 16 48 60 72 89 92 91 87 77 77 60 56
154 149 151 148 153 146 135 129 121 128 120 86 89 105 103 102 109 109 108 101 94 95 99 94 88 68 41 36 53 20 4 11 31 32 36 57 65 95 103 92 98 91 67
169 165 157 161 160 160 159 155 150 148 147 150 103 92 103 109 115 117 118 122 108 99 84 77 82 83 26 46 102 74 13 356 358 7 12 34 22 54 89 109 108 106 105
174 176 171 172 168 166 154 131 113 88 70 66 65 113 108 128 125 120 130 131 129 123 129 129 127 124 115 359 101 136 138 221 310 333 348 359 4 21 10 82 113 118 115
186 180 172 171 167 166 156 149 150 152 165 193 185 187 175 137 136 136 144 141 144 140 150 167 139 137 138 181 342 62 162 162 152 315 330 337 347 355 342 358 94 126 123
181 174 170 166 166 167 164 161 158 161 172 167 158 155 168 182 151 152 158 146 150 163 175 174 138 132 152 167 174 161 100 80 112 148 286 322 335 323 320 295 195 182 180
170 166 162 160 167 168 163 161 162 165 167 157 166 176 193 237 243 207 178 159 170 184 190 189 177 155 165 160 161 158 156 152 172 159 192 277 303 309 317 306 222 207 209
Height
1527 1526 1526 1525 1525 1524 1524 1523 1523 1522 1521 1521 1521 1521 1521 1521 1521 1521 1521 1520 1520 1520 1520 1520 1520 1520 1520 1520 1521 1521 1521 1520 1520 1520 1520 1521 1521 1521 1521 1521 1522 1522 1521
1527 1526 1526 1526 1525 1525 1524 1524 1523 1523 1522 1522 1522 1522 1522 1522 1522 1521 1521 1521 1521 1521 1521 1521 1521 1521 1521 1522 1522 1522 1522 1522 1522 1521 1521 1522 1522 1522 1522 1522 1522 1522 1522
1527 1527 1527 1526 1526 1526 1525 1524 1524 1524 1523 1523 1523 1523 1523 1523 1522 1522 1522 1521 1521 1521 1522 1522 1522 1522 1522 1523 1523 1523 1523 1523 1523 1523 1523 1522 1522 1523 1523 1522 1522 1522 1522
1528 1527 1527 1527 1527 1526 1526 1526 1525 1525 1525 1524 1524 1524 1524 1524 1523 1523 1522 1522 1522 1522 1523 1523 1523 1523 1524 1524 1524 1524 1524 1524 1524 1524 1523 1523 1523 1523 1523 1523 1523 1522 1522
1528 1528 1528 1528 1528 1528 1527 1527 1526 1526 1526 1526 1525 1525 1525 1525 1524 1524 1524 1523 1523 1523 1524 1524 1524 1524 1525 1525 1525 1525 1525 1525 1525 1524 1524 1524 1524 1524 1524 1523 1523 1523 1522
1529 1529 1529 1529 1529 1529 1528 1528 1528 1528 1527 1527 1527 1526 1526 1526 1526 1525 1525 1525 1525 1525 1525 1525 1525 1525 1526 1526 1526 1526 1526 1526 1526 1525 1525 1525 1525 1524 1524 1524 1523 1523 1523
1529 1529 1529 1530 1530 1529 1529 1529 1529 1529 1528 1528 1528 1528 1527 1527 1527 1527 1527 1526 1526 1526 1526 1526 1526 1527 1527 1527 1527 1527 1527 1527 1526 1526 1526 1526 1525 1525 1525 1524 1524 1523 1523
1530 1530 1530 1531 1531 1531 1530 1530 1530 1530 1530 1529 1529 1529 1529 1528 1528 1528 1528 1528 1527 1527 1528 1528 1528 1528 1528 1528 1528 1528 1528 1528 1528 1527 1527 1526 1526 1526 1525 1525 1524 1523 1523
1531 1531 1531 1531 1532 1532 1532 1532 1532 1531 1531 1531 1530 1530 1530 1530 1530 1530 1529 1529 1529 1529 1529 1529 1529 1529 1529 1529 1529 1529 1529 1529 1528 1528 1528 1527 1527 1526 1526 1525 1524 1524 1523
1532 1532 1533 1533 1533 1533 1533 1533 1533 1533 1532 1532 1532 1531 1531 1531 1531 1531 1531 1531 1531 1531 1531 1531 1531 1530 1530 1530 1530 1530 1530 1530 1529 1529 1528 1528 1528 1527 1526 1526 1525 1524 1523
1533 1533 1534 1534 1534 1534 1534 1534 1534 1533 1533 1533 1533 1533 1533 1532 1532 1532 1532 1532 1532 1532 1532 1532 1531 1531 1531 1531 1531 1531 1531 1530 1530 1529 1529 1529 1528 1527 1527 1526 1525 1524 1523
1533 1534 1534 1534 1535 1535 1535 1534 1534 1534 1534 1534 1534 1534 1534 1534 1533 1533 1533 1533 1533 1533 1533 1532 1532 1532 1532 1532 1532 1532 1531 1531 1530 1530 1529 1529 1529 1528 1527 1526 1525 1524 1523
1533 1534 1534 1535 1535 1535 1535 1535 1535 1535 1535 1535 1535 1535 1535 1535 1534 1534 1534 1534 1534 1534 1534 1533 1533 1533 1533 1532 1532 1532 1532 1531 1531 1530 1530 1530 1529 1528 1527 1526 1525 1524 1523
1533 1534 1534 1535 1535 1536 1536 1536 1536 1536 1536 1536 1535 1535 1535 1535 1535 1535 1535 1535 1535 1535 1535 1534 1534 1533 1533 1533 1533 1533 1532 1532 1531 1531 1530 1530 1529 1528 1527 1526 1525 1524 1522
1533 1533 1534 1535 1535 1536 1536 1537 1537 1536 1536 1536 1536 1536 1536 1536 1536 1536 1536 1536 1536 1536 1536 1535 1535 1534 1534 1533 1533 1533 1533 1532 1532 1531 1530 1530 1529 1528 1528 1526 1525 1524 1521
1532 1533 1534 1535 1535 1536 1536 1536 1536 1537 1537 1537 1536 1536 1536 1537 1537 1536 1537 1537 1536 1536 1536 1536 1535 1535 1534 1534 1534 1533 1533 1533 1532 1531 1531 1530 1529 1529 1528 1527 1526 1524 1521
1532 1533 1534 1535 1535 1536 1536 1536 1537 1537 1537 1537 1537 1537 1537 1537 1537 1537 1537 1537 1537 1537 1537 1536 1536 1535 1535 1534 1534 1534 1534 1533 1533 1532 1531 1531 1530 1530 1529 1528 1527 1525 1523
1532 1533 1533 1534 1535 1535 1536 1536 1537 1537 1537 1537 1537 1537 1537 1537 1537 1537 1537 1537 1537 1537 1537 1536 1536 1535 1535 1535 1534 1534 1534 1534 1533 1532 1532 1532 1531 1531 1530 1530 1529 1527 1526
1531 1532 1533 1534 1534 1535 1536 1536 1537 1537 1537 1537 1537 1537 1537 1537 1537 1537 1537 1537 1537 1537 1537 1537 1536 1536 1535 1535 1535 1534 1534 1534 1533 1533 1532 1532 1532 1531 1531 1530 1530 1529 1528
1530 1531 1532 1533 1534 1535 1535 1536 1536 1536 1536 1536 1536 1536 1537 1537 1537 1537 1536 1536 1537 1537 1537 1537 1536 1536 1536 1535 1535 1534 1534 1534 1534 1533 1533 1533 1532 1532 1531 1531 1530 1530 1529
1529 1530 1531 1532 1533 1534 1534 1535 1535 1535 1535 1536 1536 1536 1536 1536 1536 1536 1536 1536 1536 1536 1536 1536 1536 1536 1536 1535 1535 1535 1534 1534 1534 1534 1533 1533 1533 1532 1532 1531 1531 1530 1530
1527 1528 1530 1531 1531 1532 1533 1534 1534 1535 1535 1535 1535 1536 1536 1536 1536 1536 1536 1536 1536 1536 1536 1536 1536 1536 1536 1535 1535 1535 1535 1535 1534 1534 1533 1533 1533 1532 1532 1531 1531 1530 1530
1525 1526 1527 1529 1530 1531 1532 1533 1533 1534 1534 1534 1534 1535 1535 1535 1535 1535 1535 1535 1535 1535 1535 1535 1535 1535 1535 1535 1535 1535 1535 1534 1534 1534 1533 1533 1533 1532 1532 1531 1531 1530 1530
1522 1524 1525 1527 1528 1529 1530 1531 1531 1532 1532 1532 1533 1534 1534 1534 1534 1535 1535 1535 1535 1535 1535 1535 1535 1534 1534 1534 1534 1534 1535 1534 1534 1533 1533 1533 1532 1532 1531 1531 1530 1530 1529
1521 1522 1523 1525 1526 1527 1528 1529 1530 1530 1531 1532 1532 1533 1533 1533 1533 1533 1534 1534 1534 1534 1534 1534 1533 1533 1533 1533 1533 1533 1533 1533 1533 1533 1532 1532 1531 1531 1531 1530 1530 1529 1529
1520 1521 1522 1523 1524 1525 1526 1527 1528 1529 1529 1530 1531 1531 1531 1532 1532 1532 1532 1533 1533 1532 1532 1532 1532 1532 1532 1532 1532 1532 1532 1532 1531 1531 1531 1530 1530 1530 1529 1529 1529 1528 1528